Tracking 35334 objects as of 13-Sep-2026
HD Live streaming from Space Station
objects crossing your sky now

STARLINK-38232

Track STARLINK-38232 now!
10-day predictions
STARLINK-38232 is classified as:


NORAD ID: 100260
Int'l Code: 2026-181Q
Launch date: August 8, 2026
Source: United States (US)
Launch site: AIR FORCE WESTERN TEST RANGE (AFWTR)
Your satellite tracking list
Your tracking list is empty




NASA's NSSDC Master Catalog

Two Line Element Set (TLE):
1 A0260U 26181Q   26256.10654372  .00124869  00000-0  82497-3 0  9998
2 A0260  97.2819 299.2920 0000793 136.6622 223.4706 15.75215190  6796
Source of the keplerian elements: AFSPC